Regional Weather Roundup
Issued by NWS

Home | Current Version | Previous Version | Graphics & Text | Print | Product List | Glossary On
Versions: 1 2 3 4 5 6 7 8 9 10 11 12 13 14 15 16 17 18 19 20 21 22 23 24 25 26 27
000
ASUS45 KSLC 290410
RWRUT

UTAH REGIONAL WEATHER ROUNDUP
NATIONAL WEATHER SERVICE SALT LAKE CITY UT
1000 PM MDT TUE MAR 28 2017

UTZ001>011-023>025-290500-

NORTHERN UTAH

CITY           SKY/WX    TMP DP  RH WIND       PRES   REMARKS
BRIGHAM CITY     N/A     43  30  59 NW5       30.23R
HILL AFB       CLEAR     42  26  53 NW5       30.21R
LOGAN          PTCLDY    39  31  72 N7        30.23R WCI  34
OGDEN          CLEAR     43  27  53 N9        30.20R
SALT LAKE CITY PTCLDY    46  34  62 NW10      30.20R
TOOELE VALLEY  CLEAR     34  32  93 S7        30.23R WCI  28
WENDOVER       CLEAR     48  25  40 NW5       30.25R
HEBER CITY     PTCLDY    37  27  65 E7        30.18R WCI  32
WEST JORDAN    PTCLDY    46  37  72 W6        30.22R

$$

UTZ011>015-024>027-290500-

CENTRAL/NORTHEAST UTAH

CITY           SKY/WX    TMP DP  RH WIND       PRES   REMARKS
PROVO AIRPORT  PTCLDY    45  32  60 NW17      30.20R
MOAB/CANYONLAN CLEAR     48  31  51 NW13      30.02R
DELTA          CLEAR     37  32  81 N6        30.22R WCI  33
PRICE          CLEAR     42  27  55 W8        30.12R
RICHFIELD      CLEAR     43  27  52 N9        30.22R
ROOSEVELT      CLEAR     43  34  70 W7        30.13R
VERNAL         CLEAR     41  31  67 NE10      30.12R

$$

UTZ013>016-019>022-027-290500-

SOUTHERN UTAH

CITY           SKY/WX    TMP DP  RH WIND       PRES   REMARKS
BRYCE CANYON   CLEAR     33  23  66 NW12G21   30.16R WCI  24
CEDAR CITY     PTCLDY    37  27  67 NE9       30.19R WCI  30
MILFORD        CLEAR     38  28  67 NW10      30.21R WCI  31
ST GEORGE      PTCLDY    58  25  28 S9        30.09R
HANKSVILLE     CLEAR     50  25  37 NW9       30.08R
KANAB          CLEAR     48  25  40 N16G24    30.14R
BLANDING       PTCLDY    46  28  50 N21       30.01S

$$

REGIONAL REPORTS     COLORADO/ARIZONA

CITY           SKY/WX    TMP DP  RH WIND       PRES   REMARKS
CRAIG, CO      CLOUDY    39  30  70 N14G22    30.09R WCI  31
GRAND JUNCTION CLOUDY    49  34  56 N15       30.01R
RIFLE, CO      CLOUDY    46  33  60 NW12      30.03R
MONTROSE, CO   CLOUDY    45  35  68 NW24G32   29.98R
CORTEZ, CO     CLOUDY    44  33  65 N7        29.91R
COLORADO CITY    N/A     45  27  49 CALM      30.15R
PAGE, AZ       PTCLDY    54  23  30 NW6       30.02R
GRAND CANYON   CLEAR     41  21  44 N6        30.07R
KINGMAN, AZ    CLEAR     54   5  14 VRB5      30.05R
FLAGSTAFF, AZ  PTCLDY    40  22  48 NW7       30.05R

$$

REGIONAL REPORTS    NEVADA/IDAHO/WYOMING

CITY           SKY/WX    TMP DP  RH WIND       PRES   REMARKS
LAS VEGAS, NV  PTCLDY    66  23  19 NE15      30.06R
ELY, NY        CLEAR     37  24  59 N12       30.24R WCI  29
ELKO, NV       CLEAR     43  26  51 W3        30.28R
POCATELLO, ID  CLOUDY    41  29  62 SW13      30.24R
BURLEY, ID     MOCLDY    42  28  57 SW10      30.24R
EVANSTON, WY   CLEAR     32  23  69 NW12      30.20S WCI  23
ROCK SPRINGS,  CLOUDY    36  31  82 CALM      30.18R
KEMMERER, WY     N/A     32  23  69 NW9       30.20R WCI  24

$$




USA.gov is the U.S. government's official web portal to all federal, state and local government web resources and services.